Date String (YYYY-MM-DD hh:mm:ss) UTC,Instrument flags,Ambient pressure (hPa),Sample flow (lpm),Bypass flow (lpm),Sample temperature (°C),Ambient temperature (°C),ASC tube jacket temperature (°C),LED temperature (°C),Box temperature (°C),Sample RH (%),Span deviation,Mass concentration (μg/m³),Mass concentration (μg/m³),Mass concentration (μg/m³)
DateTimeUTC,F1_M11,P_M11,Q1_M11,Q2_M11,T1_M11,T2_M11,T3_M11,T4_M11,T5_M11,U1_M11,ZSPAN_M11,X0_M11,X2_M11,X1_M11
2022-01-21 11:00:00,,0821.7,4.99,0.00,22.2,21.5,00.0,31.3,23.9,12.9,-001.7,0015.65,0011.15,0010.88
2022-01-21 11:01:00,,0821.7,5.01,0.00,22.2,21.5,00.0,31.3,23.9,13.0,-001.7,0015.16,0010.92,0010.66
2022-01-21 11:02:00,,0821.7,4.99,0.00,22.2,21.5,00.0,31.3,23.9,13.0,-002.0,0014.91,0010.78,0010.51
2022-01-21 11:03:00,,0821.8,4.99,0.00,22.1,21.4,00.0,31.3,23.8,13.0,-002.1,0015.06,0010.82,0010.51
2022-01-21 11:04:00,,0821.8,5.00,0.00,22.1,21.3,00.0,31.2,23.7,13.0,-002.0,0015.29,0010.98,0010.64
2022-01-21 11:05:00,,0821.8,4.98,0.00,22.0,21.3,00.0,31.2,23.5,13.1,-002.0,0015.54,0011.17,0010.83
2022-01-21 11:06:00,,0821.8,5.01,0.00,22.0,21.8,00.0,31.2,23.7,13.1,-002.0,0015.31,0011.31,0010.99
2022-01-21 11:07:00,,0821.9,5.00,0.00,22.2,22.6,00.0,31.2,24.0,13.0,-001.9,0015.58,0011.51,0011.18
2022-01-21 11:08:00,,0821.9,4.98,0.00,22.3,22.9,00.0,31.3,24.2,12.9,-001.9,0016.22,0011.70,0011.37
2022-01-21 11:09:00,,0821.8,5.01,0.00,22.3,22.7,00.0,31.3,24.2,12.9,-002.0,0016.58,0011.92,0011.58
2022-01-21 11:10:00,,0821.9,5.01,0.00,22.3,22.5,00.0,31.3,24.2,12.9,-001.9,0017.00,0012.14,0011.78
2022-01-21 11:11:00,,0821.8,4.99,0.00,22.3,22.3,00.0,31.3,24.1,12.9,-001.8,0017.27,0012.29,0011.93
2022-01-21 11:12:00,,0821.9,4.98,0.00,22.3,22.1,00.0,31.3,24.0,12.8,-001.8,0017.44,0012.40,0012.04
2022-01-21 11:13:00,,0821.8,5.02,0.00,22.3,22.0,00.0,31.3,24.0,12.9,-001.6,0017.58,0012.48,0012.12
2022-01-21 11:14:00,,0821.8,4.99,0.00,22.2,21.8,00.0,31.2,23.9,12.9,-001.6,0017.57,0012.51,0012.16
2022-01-21 11:15:00,,0821.8,5.01,0.00,22.2,21.7,00.0,31.2,23.9,12.9,-001.6,0017.63,0012.55,0012.21
2022-01-21 11:16:00,,0822.0,4.99,0.00,22.2,21.6,00.0,31.2,23.8,13.0,-001.5,0017.60,0012.53,0012.20
2022-01-21 11:17:00,,0822.0,5.01,0.00,22.1,21.5,00.0,31.2,23.7,13.0,-001.4,0017.65,0012.55,0012.22
2022-01-21 11:18:00,,0822.0,4.99,0.00,22.0,21.4,00.0,31.2,23.6,13.1,-001.2,0017.76,0012.62,0012.27
2022-01-21 11:19:00,,0822.1,5.01,0.00,22.0,21.3,00.0,31.2,23.6,13.1,-001.0,0017.45,0012.68,0012.33
2022-01-21 11:20:00,,0822.0,4.99,0.00,22.0,21.2,00.0,31.1,23.5,13.2,-000.8,0017.40,0012.70,0012.36
2022-01-21 11:21:00,,0821.8,5.01,0.00,21.9,21.1,00.0,31.1,23.5,13.2,-000.7,0017.33,0012.71,0012.38
2022-01-21 11:22:00,,0821.8,5.00,0.00,21.9,21.1,00.0,31.1,23.4,13.2,-000.7,0017.41,0012.77,0012.41
2022-01-21 11:23:00,,0821.8,5.00,0.00,21.9,21.7,00.0,31.1,23.6,13.2,-000.7,0017.76,0012.86,0012.50
2022-01-21 11:24:00,,0821.9,5.00,0.00,22.0,22.5,00.0,31.1,23.9,13.1,-001.0,0018.11,0012.93,0012.59
2022-01-21 11:25:00,,0822.0,5.00,0.00,22.2,23.0,00.0,31.1,24.1,13.0,-000.8,0018.26,0013.06,0012.73
2022-01-21 11:26:00,,0821.9,5.00,0.00,22.2,22.7,00.0,31.2,24.1,13.0,-000.9,0018.41,0013.17,0012.86
2022-01-21 11:27:00,,0821.8,5.00,0.00,22.2,22.4,00.0,31.2,23.9,13.1,-001.0,0018.67,0013.34,0013.02
2022-01-21 11:28:00,,0821.9,5.00,0.00,22.2,22.2,00.0,31.2,23.9,13.1,-001.1,0018.87,0013.47,0013.15
2022-01-21 11:29:00,,0822.1,4.99,0.00,22.1,22.0,00.0,31.2,23.9,13.1,-001.2,0018.91,0013.50,0013.19
2022-01-21 11:30:00,,0822.1,5.01,0.00,22.1,21.9,00.0,31.2,23.8,13.1,-001.4,0018.98,0013.55,0013.24
2022-01-21 11:31:00,,0822.1,4.99,0.00,22.1,21.7,00.0,31.1,23.8,13.1,-001.4,0019.14,0013.65,0013.33
2022-01-21 11:32:00,,0822.1,5.01,0.00,22.0,21.5,00.0,31.1,23.6,13.2,-001.3,0019.36,0013.79,0013.49
2022-01-21 11:33:00,,0822.1,5.01,0.00,22.0,21.4,00.0,31.1,23.6,13.2,-001.4,0019.53,0013.92,0013.64
2022-01-21 11:34:00,,0822.1,4.99,0.00,22.0,21.3,00.0,31.1,23.6,13.3,-001.3,0019.54,0014.07,0013.80
2022-01-21 11:35:00,,0822.0,5.02,0.00,21.9,21.3,00.0,31.1,23.6,13.3,-001.2,0019.58,0014.24,0013.93
2022-01-21 11:36:00,,0822.0,4.99,0.00,21.9,21.3,00.0,31.0,23.6,13.3,-001.3,0019.75,0014.30,0013.97
2022-01-21 11:37:00,,0822.0,5.01,0.00,21.9,21.3,00.0,31.0,23.6,13.3,-001.5,0019.90,0014.40,0014.05
2022-01-21 11:38:00,,0822.1,5.00,0.00,21.9,21.3,00.0,31.0,23.6,13.3,-001.5,0019.99,0014.46,0014.11
2022-01-21 11:39:00,,0822.1,5.00,0.00,21.9,21.3,00.0,31.0,23.6,13.3,-001.4,0020.08,0014.54,0014.20
2022-01-21 11:40:00,,0822.2,4.99,0.00,21.9,21.3,00.0,31.0,23.6,13.3,-001.4,0020.05,0014.56,0014.24
2022-01-21 11:41:00,,0822.3,5.02,0.00,21.9,21.3,00.0,31.0,23.6,13.3,-001.3,0019.86,0014.45,0014.12
2022-01-21 11:42:00,,0822.3,4.99,0.00,21.9,21.3,00.0,31.0,23.6,13.3,-001.4,0019.46,0014.16,0013.83
2022-01-21 11:43:00,,0822.3,5.01,0.00,22.0,21.7,00.0,31.0,23.7,13.3,-001.5,0019.17,0013.98,0013.66
2022-01-21 11:44:00,,0822.4,5.00,0.00,22.1,22.6,00.0,31.0,24.0,13.3,-001.5,0018.88,0013.80,0013.48
2022-01-21 11:45:00,,0822.4,4.99,0.00,22.2,23.2,00.0,31.1,24.3,13.2,-001.6,0018.62,0013.63,0013.32
2022-01-21 11:46:00,,0822.3,5.01,0.00,22.3,23.1,00.0,31.1,24.3,13.1,-001.5,0018.26,0013.44,0013.16
2022-01-21 11:47:00,,0822.3,4.99,0.00,22.4,22.9,00.0,31.1,24.3,13.1,-001.4,0018.04,0013.30,0013.04
2022-01-21 11:48:00,,0822.2,5.01,0.00,22.4,22.7,00.0,31.2,24.3,13.1,-001.4,0017.71,0013.10,0012.85
2022-01-21 11:49:00,,0822.1,5.00,0.00,22.4,22.5,00.0,31.2,24.2,13.1,-001.3,0017.67,0012.96,0012.70
2022-01-21 11:50:00,,0822.2,5.01,0.00,22.4,22.3,00.0,31.2,24.2,13.0,-001.4,0017.78,0012.83,0012.54
2022-01-21 11:51:00,,0822.2,4.99,0.00,22.4,22.2,00.0,31.2,24.1,13.0,-001.5,0017.73,0012.78,0012.45
2022-01-21 11:52:00,,0822.1,4.99,0.00,22.3,22.1,00.0,31.2,24.1,13.0,-001.8,0017.77,0012.80,0012.47
2022-01-21 11:53:00,,0822.2,5.00,0.00,22.3,22.0,00.0,31.2,24.1,13.0,-001.8,0018.13,0013.06,0012.71
2022-01-21 11:54:00,,0822.1,5.01,0.00,22.3,21.9,00.0,31.2,24.0,13.0,-001.7,0018.28,0013.16,0012.80
2022-01-21 11:55:00,,0822.1,4.99,0.00,22.3,21.8,00.0,31.2,24.0,13.0,-001.8,0018.48,0013.26,0012.88
2022-01-21 11:56:00,,0822.2,5.01,0.00,22.3,21.8,00.0,31.2,24.0,13.0,-001.7,0018.72,0013.32,0012.91
2022-01-21 11:57:00,,0822.2,4.99,0.00,22.3,21.7,00.0,31.2,24.0,13.0,-001.6,0018.84,0013.39,0012.95
2022-01-21 11:58:00,,0822.1,5.00,0.00,22.2,21.7,00.0,31.2,24.0,13.0,-001.5,0018.90,0013.46,0013.00
2022-01-21 11:59:00,,0822.1,5.01,0.00,22.2,21.6,00.0,31.2,24.0,13.0,-001.6,0019.44,0013.57,0013.09
